Regional Weather Roundup
Issued by NWS Bismarck, ND

Current Version | Previous Version | Text Only | Print | Product List | Glossary On
Versions: 1 2 3 4 5 6 7 8 9 10 11 12 13 14 15 16 17 18 19 20 21 22 23 24 25 26 27 28 29 30 31 32 33 34 35 36 37 38 39 40 41 42 43 44 45 46 47 48 49 50
000
ASUS43 KBIS 200910
RWRBIS

NWR BROADCAST TEXT
NATIONAL WEATHER SERVICE BISMARCK ND
400 AM CDT WED SEP 20 2017

NOTE: "FAIR" INDICATES FEW OR NO CLOUDS BELOW 12,000 FEET WITH NO
SIGNIFICANT WEATHER AND/OR OBSTRUCTIONS TO VISIBILITY.


CITY           SKY/WX    TMP DP  RH WIND       PRES   REMARKS
WILLISTON      CLEAR     41  37  86 SW6       29.58F
MINOT          CLEAR     50  45  83 SW10      29.54F
MINOT AFB      CLEAR     48  45  89 W10       29.52F
BISMARCK       CLEAR     48  43  82 W12       29.64R
DICKINSON      CLEAR     41  39  93 W10       29.63R
GARRISON         N/A     44  41  89 W10       29.57F
HETTINGER ARPT CLEAR     40  36  86 NW6       29.69S
JAMESTOWN      CLOUDY    52  46  80 W9        29.57R
CARRINGTON     FAIR      50  46  87 W10       29.58R
HAZEN          FAIR      43  41  93 SW10      29.63R
LINTON           N/A     43  39  87 W6        29.67S
MANDAN         FAIR      45  41  87 W16       29.64R
RUGBY          PTSUNNY   48  48 100 W10       29.52S
STANLEY        FAIR      43  43 100 W9        29.59S
TIOGA          FAIR      43  43 100 W9        29.59R
WATFORD CITY   FAIR      39  37  93 SW5       29.59F
$$

CITY           SKY/WX    TMP DP  RH WIND       PRES   REMARKS
GRAND FORKS    CLOUDY    60  58  92 W14G22    29.47R
GRAND FORKS AF CLOUDY    58  54  88 W14G25    29.48R
DEVILS LAKE    PTCLDY    51  49  92 W9        29.52R
FARGO          CLOUDY    60  58  92 W20       29.53R
CANDO          PTSUNNY   50  50 100 W13       29.51S
CAVALIER       PTSUNNY   57  55  94 W14G20    29.42R
GRAFTON        CLOUDY    59  57  94 W18G24    29.47R
GWINNER        SUNNY     55  54  94 W8G16     29.57F
LANGDON        CLOUDY    54  54 100 W17G25    29.47R
ROLLA          CLOUDY    50  50 100 W16       29.49F
WALHALLA       FAIR     N/A N/A N/A W10G16    29.43R
$$

CITY           SKY/WX    TMP DP  RH WIND       PRES   REMARKS
ABERDEEN       CLOUDY    54  50  86 W10       29.64S
MOBRIDGE       CLEAR     48  44  86 NW8       29.67R
BUFFALO          N/A     40  38  93 W12       29.63F
GLASGOW        CLEAR     44  35  70 NW5       29.57S
SIDNEY         CLEAR     42  38  85 S9        29.60F
WOLF POINT     CLEAR     37  34  89 CALM      29.57F
GLENDIVE         N/A     46  38  73 SW12      29.62F
MILES CITY     PTCLDY    46  35  65 SW13      29.66S
BAKER          PTCLDY    44  38  79 W6        29.67S
$$

CITY           SKY/WX    TMP DP  RH WIND       PRES   REMARKS
BILLINGS       PTCLDY    45  34  65 W14       29.70F
GREAT FALLS    CLOUDY    43  27  53 S14G26    29.62R
REGINA         CLOUDY    41  37  87 SW6       29.48F
ESTEVAN        PTCLDY    46  41  81 SW8       29.53S
$$





USA.gov is the U.S. government's official web portal to all federal, state and local government web resources and services.